Barter Island, AK

8:01 AM AKDT on April 19, 2018 (GMT -0800)
Barter Island LRRS

Weather History for PABA - April, 2014

Change the Weather History Date:

Tuesday, April 8, 2014

  Actual Average Record
Temperature  
Mean Temperature -8 °F -  
Max Temperature -11 °F 7 °F 26 °F (1999)
Min Temperature -11 °F -4 °F -18 °F (2013)
Degree Days  
Heating Degree Days 73    
Moisture  
Dew Point -14 °F    
Average Humidity 76    
Maximum Humidity 83    
Minimum Humidity 71    
Precipitation  
Precipitation 0.00 in - - ()
Sea Level Pressure  
Sea Level Pressure 29.87 in    
Wind  
Wind Speed 14 mph (West)    
Max Wind Speed 23 mph    
Max Gust Speed -    
Visibility 4 miles    
Events Snow    
Averages and records for this station are not official NWS values.
T = Trace of Precipitation, MM = Missing Value Source: NWS Daily Summary

Daily Weather History Graph

Daily Weather History Graph

Search for Another Location

Airport or City:

Astronomy

Apr. 08, 2014 Rise Set
Actual Time 6:02 AM AKDT 9:12 PM AKDT
Civil Twilight 4:49 AM AKDT 10:26 PM AKDT
Nautical Twilight 2:33 AM AKDT 12:58 AM AKDT
Astronomical Twilight Sun does not set Sun does not set
Moon 11:59 AM AKDT (4/8) 5:40 AM AKDT (4/8)
Length of Visible Light 17h 36m
Length of Day
15h 10m
Waxing Gibbous, 64% of the Moon is Illuminated
Apr 8
Waxing Gibbous
Apr 14
Full
Apr 21
Last Quarter
Apr 28
New
May 6
First Quarter

Hourly Weather History & Observations

Time (AKDT) Temp. Windchill Dew Point Humidity Pressure Visibility Wind Dir Wind Speed Gust Speed Precip Events Conditions
12:01 AM -9.0 °F -26.4 °F -13.0 °F 83% 29.84 in 2.5 mi West 9.2 mph - N/A Snow Light Snow
12:24 AM -9.4 °F -25.6 °F -14.8 °F 77% 29.84 in 3.0 mi West 8.1 mph - 0.00 in Snow Light Snow
1:01 AM -9.0 °F -28.4 °F -14.1 °F 79% 29.84 in 8.0 mi West 11.5 mph - 0.00 in Snow Light Snow
2:01 AM -9.9 °F -27.5 °F -14.1 °F 82% 29.84 in 8.0 mi West 9.2 mph - 0.00 in Snow Light Snow
3:01 AM -9.9 °F -29.6 °F -15.0 °F 78% 29.84 in 9.0 mi West 11.5 mph - N/A Snow Light Snow
4:01 AM -9.9 °F -29.6 °F -15.0 °F 78% 29.83 in 7.0 mi West 11.5 mph - 0.00 in Snow Light Snow
5:01 AM -9.9 °F -29.6 °F -14.1 °F 82% 29.83 in 4.0 mi West 11.5 mph - 0.00 in Snow Light Snow
5:57 AM -9.4 °F -29.8 °F -14.8 °F 77% 29.83 in 2.5 mi West 12.7 mph - N/A Snow Light Snow
6:01 AM -9.9 °F -29.6 °F -14.1 °F 82% 29.83 in 2.5 mi West 11.5 mph - N/A Snow Light Snow
6:35 AM -9.4 °F -28.9 °F -14.8 °F 77% 29.83 in 2.5 mi West 11.5 mph - N/A Snow Light Snow
7:28 AM -9.4 °F -28.9 °F -14.8 °F 77% 29.83 in - West 11.5 mph - N/A Snow Light Snow
7:38 AM -9.4 °F -29.8 °F -14.8 °F 77% 29.83 in 2.5 mi West 12.7 mph - N/A Snow Light Snow
8:01 AM -9.4 °F -31.4 °F -14.8 °F 77% 29.84 in 2.5 mi West 15.0 mph - N/A Snow Light Snow
8:25 AM -9.4 °F -30.6 °F -14.8 °F 77% 29.84 in 1.8 mi West 13.8 mph - N/A Snow Light Snow
8:34 AM -9.4 °F -29.8 °F -14.8 °F 77% 29.84 in 2.0 mi West 12.7 mph - N/A Snow Light Snow
9:01 AM -7.6 °F -28.3 °F -14.8 °F 71% 29.84 in 2.0 mi West 13.8 mph - N/A Snow Light Snow
9:29 AM -7.6 °F -29.1 °F -14.8 °F 71% 29.83 in 1.2 mi West 15.0 mph - N/A Snow Light Snow
10:27 AM -7.6 °F -29.8 °F -13.0 °F 77% 29.85 in 1.8 mi West 16.1 mph - N/A Snow Light Snow
10:37 AM -7.6 °F -29.8 °F -14.8 °F 71% 29.85 in 1.0 mi West 16.1 mph - N/A Snow Light Snow
11:01 AM -7.6 °F -29.1 °F -13.0 °F 77% 29.85 in 1.0 mi West 15.0 mph - N/A Snow Light Snow
11:13 AM -7.6 °F -29.8 °F -13.0 °F 77% 29.85 in 1.2 mi West 16.1 mph - N/A Snow Light Snow
11:23 AM -7.6 °F -28.3 °F -13.0 °F 77% 29.85 in 1.5 mi West 13.8 mph - N/A Snow Light Snow
12:01 PM -7.1 °F -29.8 °F -13.0 °F 75% 29.86 in 1.2 mi West 17.3 mph - N/A Snow Light Snow
1:01 PM -7.1 °F -30.4 °F -13.0 °F 75% 29.87 in 1.5 mi West 18.4 mph - 0.00 in Snow Light Snow
1:21 PM -5.8 °F -29.4 °F -13.0 °F 71% 29.88 in 1.8 mi West 19.6 mph - 0.00 in Snow Light Snow
1:43 PM -5.8 °F -28.8 °F -13.0 °F 71% 29.88 in 1.2 mi West 18.4 mph - 0.00 in Snow Light Snow
2:01 PM -6.0 °F -27.7 °F -13.0 °F 72% 29.88 in 1.8 mi West 16.1 mph - 0.00 in Snow Light Snow
2:23 PM -5.8 °F -27.5 °F -13.0 °F 71% 29.88 in 2.0 mi West 16.1 mph - 0.00 in Snow Light Snow
2:43 PM -7.6 °F -31.7 °F -13.0 °F 77% 29.89 in 4.0 mi West 19.6 mph - 0.00 in Snow Light Snow
2:53 PM -7.6 °F -30.5 °F -13.0 °F 77% 29.89 in 5.0 mi West 17.3 mph - 0.00 in Snow Light Snow
3:01 PM -7.1 °F -29.8 °F -13.0 °F 75% 29.89 in 3.0 mi West 17.3 mph - 0.00 in Snow Light Snow
4:01 PM -6.0 °F -29.6 °F -13.0 °F 72% 29.90 in 6.0 mi West 19.6 mph - N/A Snow Light Snow
4:21 PM -5.8 °F -29.4 °F -11.2 °F 77% 29.90 in 2.5 mi West 19.6 mph - 0.00 in Snow Light Snow
4:24 PM -5.8 °F -30.5 °F -11.2 °F 77% 29.90 in 3.0 mi West 21.9 mph - 0.00 in Snow Light Snow
5:01 PM -6.0 °F -30.2 °F -13.0 °F 72% 29.91 in 5.0 mi West 20.7 mph - N/A   Haze
6:01 PM -7.1 °F -31.0 °F -13.0 °F 75% 29.92 in 9.0 mi West 19.6 mph - 0.00 in   Clear
7:01 PM -9.0 °F -30.9 °F -15.0 °F 75% 29.93 in 10.0 mi West 15.0 mph - N/A   Clear
8:01 PM -9.0 °F -34.2 °F -15.0 °F 75% 29.94 in 7.0 mi West 20.7 mph - N/A   Clear
9:01 PM -11.0 °F -36.8 °F -16.1 °F 78% 29.96 in 9.0 mi West 20.7 mph - N/A   Clear
10:01 PM -11.0 °F -36.8 °F -16.1 °F 78% 29.97 in 9.0 mi West 20.7 mph - N/A   Clear
11:01 PM -11.9 °F -39.1 °F -17.0 °F 78% 29.99 in 6.0 mi West 23.0 mph - N/A   Haze